[[{"header":{"parameterUnit":"m.s-1","parameterCategory":1,"la1":30.2991,"la2":30.254,"lo1":-89.0895,"lo2":-89.0444,"dy":0.0017,"dx":0.0017,"nx":28,"ny":28,"refTime":"2024-08-16T03:00:00:Z","depth":0,"parameterNumber":2,"parameterNumberName":"U-component_of_WINDS"},"data":[0,0,0,0,0,0,0,0,0,0,0,0,0,0,0,0,0,0,0,0,0,0,0,0,0,0,0,0,0,0,0,0,0,0,0,0,0,0,0,0,0,0,0,0,0,0,0,0,0,0,0,0,0,0,0,0,0,0,-2.4691,-2.4691,0,-2.4655,-2.4655,-2.4655,-2.4607,-2.4606,-2.4606,-2.4605,-2.4568,-2.4568,-2.4568,0,0,0,0,0,0,0,0,0,0,0,0,0,-2.4719,-2.4719,-2.4691,-2.4691,-2.469,-2.4655,-2.4655,-2.4654,-2.4607,-2.4606,-2.4605,-2.4604,-2.4568,-2.4568,-2.4568,0,0,0,0,0,0,0,0,0,0,0,0,0,-2.4698,-2.4719,-2.4691,-2.4662,-2.4659,-2.4656,-2.4655,-2.4654,-2.4607,-2.4606,-2.4605,-2.4604,-2.4568,-2.4568,-2.4568,-2.4589,0,0,-2.4567,-2.4566,0,0,0,0,0,0,0,0,-2.4699,-2.4697,-2.4667,-2.4664,-2.4661,-2.4634,-2.4651,-2.4632,-2.4608,-2.4627,-2.4605,-2.4603,-2.4591,-2.4589,-2.4585,-2.4587,-2.4586,-2.4567,-2.4566,-2.4566,-2.4566,0,0,0,0,0,0,0,-2.4701,-2.4698,-2.4677,-2.4667,-2.4663,-2.4652,-2.4647,-2.4648,-2.4616,-2.4625,-2.4622,-2.4618,-2.4589,-2.4585,-2.4584,-2.4585,-2.4567,-2.4566,-2.4566,-2.4566,-2.4604,-2.4605,0,0,0,0,0,0,-2.4706,-2.47,-2.4678,-2.4676,-2.4678,-2.4652,-2.4647,-2.4644,-2.4616,-2.4611,-2.4619,-2.4616,-2.4586,-2.4584,-2.4582,-2.4605,-2.4566,-2.4566,-2.4566,-2.4603,-2.4604,-2.4606,0,0,0,0,0,0,-2.4707,-2.4705,-2.4679,-2.4687,-2.4683,-2.4653,-2.465,-2.4644,-2.464,-2.4612,-2.4606,-2.4621,-2.4585,-2.4583,-2.4588,-2.4603,-2.4566,-2.4565,-2.4601,-2.4603,-2.4605,-2.4651,0,0,0,0,0,0,-2.4708,-2.4705,-2.4713,-2.4687,-2.4682,-2.4685,-2.4651,-2.4644,-2.4639,-2.4635,-2.4611,-2.4606,-2.4584,-2.4589,-2.4587,-2.4602,-2.4565,-2.46,-2.4602,-2.4604,-2.4648,-2.4654,-2.4659,0,0,0,0,0,-2.4709,-2.4727,-2.4713,-2.4711,-2.4691,-2.4686,-2.4684,-2.4658,-2.4641,-2.4648,-2.463,-2.4607,-2.4602,-2.4589,-2.4588,-2.4602,-2.4599,-2.4602,-2.4604,-2.4645,-2.4653,-2.4659,0,0,0,0,0,0,-2.4754,-2.4723,-2.4707,-2.4717,-2.4705,-2.4678,-2.4686,-2.4667,-2.4659,-2.4655,-2.4624,-2.4619,-2.4628,-2.4616,-2.4602,-2.4622,-2.4597,-2.46,-2.4629,-2.4636,-2.4641,-2.4643,-2.4565,0,0,0,0,0,-2.4766,-2.4764,-2.4737,-2.4749,-2.4743,-2.4716,-2.4713,-2.4695,-2.468,-2.4675,-2.4657,-2.4644,-2.464,-2.4637,-2.4632,-2.4647,-2.4641,-2.4656,-2.4662,-2.4667,-2.4669,-2.4676,-2.4682,-2.4615,-2.4615,-2.4615,0,0,-2.4789,-2.4771,-2.4772,-2.4757,-2.4745,-2.4745,-2.4712,-2.4713,-2.4712,-2.4675,-2.4678,-2.4665,-2.4649,-2.4659,-2.4663,-2.465,-2.4686,-2.467,-2.4674,-2.4673,-2.4679,-2.4685,-2.4691,-2.4617,-2.4616,-2.4616,0,0,-2.4829,-2.4817,-2.4824,-2.4814,-2.4796,-2.4779,-2.4781,-2.4758,-2.4748,-2.4751,-2.4723,-2.4723,-2.4716,-2.4705,-2.4699,-2.4739,-2.4717,-2.4738,-2.4767,-2.4774,-2.4779,-2.4784,-2.4797,-2.4803,-2.474,-2.474,-2.4741,0,-2.486,-2.4857,-2.4831,-2.4834,-2.4828,-2.4796,-2.4804,-2.4794,-2.4776,-2.4773,-2.4759,-2.475,-2.4737,-2.4744,-2.4754,-2.4751,-2.4752,-2.4739,-2.4781,-2.4785,-2.4789,-2.4801,-2.4806,-2.4743,-2.4743,-2.4742,-2.4742,0,-2.4895,-2.4895,-2.4903,-2.4887,-2.4882,-2.4888,-2.4863,-2.4861,-2.4844,-2.4828,-2.4833,-2.4816,-2.4807,-2.4808,-2.4791,-2.4813,-2.4805,-2.4787,-2.4761,-2.4798,-2.4809,-2.4814,-2.4747,-2.4746,-2.4745,-2.4744,0,0,-2.4961,-2.4931,-2.4935,-2.4927,-2.4907,-2.4905,-2.491,-2.4901,-2.4901,-2.489,-2.4893,-2.4889,-2.4872,-2.4865,-2.4847,-2.4854,-2.4886,-2.4834,-2.4834,-2.4843,-2.4908,-2.4921,-2.4927,-2.4872,-2.4873,-2.4874,-2.4909,0,-2.4997,-2.5002,-2.4979,-2.4991,-2.4989,-2.496,-2.4964,-2.4952,-2.4938,-2.4936,-2.492,-2.4917,-2.4896,-2.4892,-2.4897,-2.4881,-2.4898,-2.4878,-2.4874,-2.4874,-2.4877,-2.4933,-2.4946,-2.498,-2.4914,-2.4914,-2.4915,0,-2.5039,-2.503,-2.5042,-2.5021,-2.502,-2.5024,-2.5014,-2.5012,-2.4999,-2.4988,-2.4982,-2.4961,-2.4965,-2.4942,-2.4947,-2.4934,-2.4931,-2.4923,-2.4924,-2.4921,-2.4895,-2.493,-2.4991,-2.4995,-2.4922,-2.4921,-2.4921,0,-2.5084,-2.5076,-2.5082,-2.5076,-2.5053,-2.5056,-2.5047,-2.5033,-2.5029,-2.5021,-2.5018,-2.5011,-2.5007,-2.5002,-2.4981,-2.4966,-2.4988,-2.4963,-2.4979,-2.4979,-2.4982,-2.4982,-2.5042,-2.4984,-2.4984,-2.4984,-2.4984,0,-2.5125,-2.5133,-2.5102,-2.5105,-2.5113,-2.5088,-2.5097,-2.5085,-2.5072,-2.5073,-2.5048,-2.5049,-2.5022,-2.502,-2.5004,-2.501,-2.5009,-2.5,-2.4995,-2.5001,-2.5002,-2.4997,-2.4994,-2.4985,-2.4985,-2.4985,-2.4985,0,-2.5176,-2.5156,-2.516,-2.5138,-2.5133,-2.514,-2.5121,-2.5124,-2.5109,-2.511,-2.5109,-2.5086,-2.5083,-2.5062,-2.5054,-2.5044,-2.5055,-2.5047,-2.5059,-2.5056,-2.5072,-2.507,-2.513,-2.5136,-2.5076,-2.5076,-2.5077,0,-2.5203,-2.5208,-2.5187,-2.5186,-2.5178,-2.5176,-2.5172,-2.5149,-2.5146,-2.5132,-2.5136,-2.5131,-2.5126,-2.5123,-2.5106,-2.51,-2.509,-2.5111,-2.5089,-2.5095,-2.5089,-2.5088,-2.5088,-2.5115,-2.5116,-2.5117,-2.5117,0,-2.5252,-2.5242,-2.5237,-2.523,-2.5226,-2.5219,-2.5211,-2.5211,-2.5185,-2.5184,-2.518,-2.5177,-2.5169,-2.5165,-2.5156,-2.5147,-2.5128,-2.5125,-2.5128,-2.5133,-2.514,-2.5135,-2.5071,-2.5123,-2.5123,-2.5122,-2.5122,-2.5122,-2.529,-2.5294,-2.528,-2.5276,-2.5267,-2.526,-2.5261,-2.5247,-2.5244,-2.5236,-2.5223,-2.5222,-2.521,-2.5196,-2.5189,-2.5188,-2.5177,-2.5181,-2.5182,-2.5183,-2.5186,-2.5142,-2.5187,-2.5186,-2.5186,-2.5186,-2.5186,0,-2.5337,-2.5327,-2.5324,-2.5313,-2.531,-2.5294,-2.5284,-2.5283,-2.5282,-2.5272,-2.5268,-2.5264,-2.526,-2.5244,-2.5238,-2.524,-2.5232,-2.524,-2.5238,-2.5236,-2.5197,-2.5194,-2.5247,-2.5247,-2.5247,-2.5247,-2.5247,-2.5247,-2.5361,-2.5365,-2.5354,-2.5355,-2.5345,-2.5343,-2.5339,-2.5333,-2.5325,-2.5322,-2.5319,-2.5308,-2.5296,-2.5289,-2.5285,-2.528,-2.5279,-2.529,-2.5282,-2.5245,-2.5239,-2.5233,-2.5231,-2.529,-2.529,-2.5321,-2.5321,-2.5322]},{"header":{"parameterUnit":"m.s-1","parameterCategory":1,"la1":30.2991,"la2":30.254,"lo1":-89.0895,"lo2":-89.0444,"dy":0.0017,"dx":0.0017,"nx":28,"ny":28,"refTime":"2024-08-16T03:00:00:Z","depth":0,"parameterNumber":3,"parameterNumberName":"V-component_of_WINDS"},"data":[0,0,0,0,0,0,0,0,0,0,0,0,0,0,0,0,0,0,0,0,0,0,0,0,0,0,0,0,0,0,0,0,0,0,0,0,0,0,0,0,0,0,0,0,0,0,0,0,0,0,0,0,0,0,0,0,0,0,3.5078,3.5079,0,3.5126,3.5126,3.5127,3.5188,3.5189,3.519,3.5191,3.5236,3.5236,3.5236,0,0,0,0,0,0,0,0,0,0,0,0,0,3.5038,3.5038,3.5078,3.5079,3.508,3.5126,3.5126,3.5127,3.5188,3.5189,3.519,3.5191,3.5235,3.5236,3.5236,0,0,0,0,0,0,0,0,0,0,0,0,0,3.5067,3.5038,3.5078,3.5116,3.512,3.5125,3.5126,3.5127,3.5188,3.5189,3.5191,3.5192,3.5235,3.5236,3.5236,3.5208,0,0,3.5237,3.5237,0,0,0,0,0,0,0,0,3.5065,3.5069,3.511,3.5113,3.5117,3.5153,3.5128,3.5154,3.5187,3.5162,3.5191,3.5193,3.5206,3.5209,3.5215,3.521,3.5212,3.5237,3.5237,3.5238,3.5238,0,0,0,0,0,0,0,3.5063,3.5067,3.5097,3.511,3.5115,3.5129,3.5135,3.5133,3.5175,3.5164,3.5169,3.5173,3.5209,3.5214,3.5216,3.5213,3.5237,3.5238,3.5238,3.5238,3.5187,3.5186,0,0,0,0,0,0,3.5056,3.5065,3.5096,3.5098,3.5095,3.5128,3.5135,3.514,3.5175,3.5182,3.5172,3.5176,3.5213,3.5216,3.5218,3.5187,3.5238,3.5238,3.5238,3.5189,3.5187,3.5185,0,0,0,0,0,0,3.5055,3.5058,3.5094,3.5083,3.5089,3.5128,3.5132,3.514,3.5145,3.5181,3.5189,3.517,3.5214,3.5217,3.521,3.519,3.5238,3.5238,3.5191,3.5188,3.5186,3.5125,0,0,0,0,0,0,3.5054,3.5058,3.5048,3.5082,3.5089,3.5086,3.5131,3.514,3.5146,3.5152,3.5181,3.5188,3.5216,3.5209,3.5211,3.5191,3.5239,3.5193,3.5189,3.5187,3.5129,3.5121,3.5114,0,0,0,0,0,3.5052,3.5028,3.5047,3.5051,3.5078,3.5085,3.5088,3.5122,3.5144,3.5134,3.5158,3.5187,3.5192,3.5208,3.521,3.519,3.5194,3.519,3.5187,3.5133,3.5123,3.5115,0,0,0,0,0,0,3.4989,3.5034,3.5055,3.5042,3.5059,3.5095,3.5084,3.511,3.5121,3.5125,3.5166,3.5172,3.5159,3.5174,3.5191,3.5165,3.5197,3.5194,3.5155,3.5146,3.5139,3.5135,3.5239,0,0,0,0,0,3.4974,3.4977,3.5015,3.5,3.5008,3.5044,3.5048,3.5073,3.5092,3.5099,3.5122,3.5138,3.5143,3.5146,3.5153,3.5132,3.5139,3.512,3.5112,3.5106,3.5102,3.5092,3.5083,3.5174,3.5174,3.5174,0,0,3.4942,3.4967,3.4966,3.4988,3.5004,3.5005,3.505,3.5049,3.505,3.5098,3.5093,3.511,3.5131,3.5117,3.5112,3.5129,3.5079,3.5101,3.5096,3.5096,3.5087,3.5079,3.5071,3.5171,3.5172,3.5172,0,0,3.4885,3.4904,3.4894,3.491,3.4934,3.4959,3.4956,3.4988,3.5001,3.4997,3.5034,3.5035,3.5043,3.5057,3.5065,3.5013,3.504,3.5014,3.4974,3.4964,3.4957,3.495,3.4931,3.4924,3.501,3.501,3.501,0,3.4842,3.4846,3.4885,3.4882,3.489,3.4936,3.4925,3.4938,3.4962,3.4966,3.4986,3.4997,3.5015,3.5004,3.4992,3.4997,3.4994,3.501,3.4955,3.4949,3.4944,3.4926,3.4919,3.5007,3.5007,3.5007,3.5008,0,3.4792,3.4794,3.4783,3.4807,3.4814,3.4807,3.4843,3.4845,3.4869,3.4891,3.4886,3.4908,3.4921,3.492,3.4943,3.4913,3.4923,3.4948,3.4981,3.4931,3.4915,3.4909,3.5002,3.5003,3.5004,3.5005,0,0,3.4696,3.4742,3.4737,3.4749,3.4779,3.4781,3.4776,3.4789,3.479,3.4806,3.4802,3.4808,3.4832,3.484,3.4865,3.4856,3.4813,3.4883,3.4884,3.4868,3.478,3.4761,3.4752,3.4832,3.483,3.483,3.4778,0,3.4644,3.4639,3.4673,3.4658,3.466,3.4704,3.4699,3.4717,3.4737,3.4741,3.4763,3.4767,3.4798,3.4804,3.4797,3.482,3.4796,3.4824,3.4827,3.4827,3.482,3.4744,3.4724,3.4674,3.4772,3.4771,3.4771,0,3.4582,3.4596,3.4582,3.4613,3.4615,3.4611,3.4626,3.4629,3.465,3.4665,3.4675,3.4704,3.47,3.4733,3.4727,3.4746,3.4749,3.476,3.4759,3.476,3.4795,3.4742,3.4659,3.4652,3.4761,3.4762,3.4763,0,3.4513,3.4528,3.4521,3.453,3.4566,3.4562,3.4577,3.4599,3.4605,3.4618,3.4622,3.4633,3.4639,3.4647,3.4678,3.4698,3.4668,3.4703,3.468,3.4679,3.4671,3.4671,3.4587,3.4674,3.4674,3.4674,3.4674,0,3.4451,3.444,3.449,3.4486,3.4475,3.4514,3.4502,3.4521,3.4541,3.454,3.4578,3.4576,3.4618,3.4621,3.4645,3.4636,3.4639,3.465,3.4657,3.4646,3.4645,3.4649,3.4652,3.4672,3.4673,3.4673,3.4673,0,3.4371,3.4405,3.44,3.4436,3.4444,3.4435,3.4465,3.4462,3.4485,3.4484,3.4485,3.4521,3.4527,3.4559,3.4571,3.4587,3.4569,3.4582,3.4562,3.4566,3.4541,3.4543,3.4456,3.4446,3.454,3.4539,3.4538,0,3.4329,3.4322,3.4357,3.436,3.4374,3.4378,3.4385,3.4423,3.4428,3.4451,3.4444,3.4453,3.4462,3.4468,3.4494,3.4504,3.4517,3.4486,3.4519,3.4509,3.4516,3.4516,3.4515,3.4479,3.4477,3.4476,3.4476,0,3.4251,3.4268,3.4276,3.429,3.4297,3.431,3.4325,3.4325,3.4367,3.437,3.4377,3.4383,3.4397,3.4404,3.4418,3.4432,3.446,3.4465,3.446,3.445,3.4438,3.4444,3.4543,3.4467,3.4468,3.4469,3.4469,3.4469,3.4188,3.4184,3.4208,3.4216,3.4232,3.4245,3.4244,3.4268,3.4274,3.4288,3.431,3.4313,3.4334,3.4356,3.4368,3.437,3.4387,3.4379,3.4378,3.4375,3.437,3.4438,3.4373,3.4373,3.4373,3.4374,3.4374,0,3.4112,3.413,3.4137,3.4157,3.4163,3.4191,3.4209,3.4211,3.4214,3.4232,3.424,3.4247,3.4255,3.4282,3.4292,3.4289,3.4302,3.429,3.429,3.4293,3.4355,3.4358,3.4279,3.4279,3.4279,3.4279,3.4279,3.4279,3.4072,3.4067,3.4086,3.4088,3.4106,3.4111,3.4119,3.413,3.4145,3.4151,3.4158,3.4177,3.4198,3.421,3.4218,3.4225,3.4227,3.4211,3.4222,3.4279,3.4288,3.4297,3.43,3.4211,3.4211,3.4161,3.416,3.416]}]]